This is the latest recevied weather packets stored in our database for station/object OE7AOT-2. If no packets are shown the sender has not sent any weather packets the latest 1 day(s).
| Time | Temp. | Humidity | Pressure | Rain* | Wind** | Luminosity | Snow |
|---|---|---|---|---|---|---|---|
| 1778062996 | 36.11° C | 61% | 915.8 hPa | 0 mm | - | - | - |
| 1778062791 | 34.44° C | 62% | 915.9 hPa | 0 mm | - | - | - |
| 1778062722 | 33.89° C | 63% | 916 hPa | 0 mm | - | - | - |
| 1778062654 | 33.33° C | 63% | 916 hPa | 0 mm | - | - | - |
| 1778062517 | 32.22° C | 59% | 916.1 hPa | 0 mm | - | - | - |
| 1778062380 | 33.33° C | 59% | 916.1 hPa | 0 mm | - | - | - |
| 1778062038 | 31.67° C | 65% | 916.1 hPa | 0 mm | - | - | - |
| 1778061901 | 30° C | 67% | 916.2 hPa | 0 mm | - | - | - |
| 1778061764 | 28.33° C | 64% | 916.3 hPa | 0 mm | - | - | - |
| 1778061422 | 26.67° C | 64% | 916.3 hPa | 0 mm | - | - | - |
| 1778061285 | 26.67° C | 64% | 916.4 hPa | 0 mm | - | - | - |
| 1778061148 | 26.67° C | 62% | 916.4 hPa | 0 mm | - | - | - |
| 1778060943 | 26.67° C | 62% | 916.4 hPa | 0 mm | - | - | - |
| 1778060874 | 27.22° C | 62% | 916.4 hPa | 0 mm | - | - | - |
| 1778060806 | 27.22° C | 63% | 916.5 hPa | 0 mm | - | - | - |
| 1778060737 | 27.22° C | 64% | 916.4 hPa | 0 mm | - | - | - |
| 1778060669 | 27.22° C | 64% | 916.5 hPa | 0 mm | - | - | - |
| 1778060533 | 27.22° C | 63% | 916.4 hPa | 0 mm | - | - | - |
| 1778060395 | 27.78° C | 62% | 916.4 hPa | 0 mm | - | - | - |
| 1778060327 | 28.33° C | 63% | 916.4 hPa | 0 mm | - | - | - |
| 1778060258 | 28.33° C | 63% | 916.5 hPa | 0 mm | - | - | - |
| 1778060190 | 28.33° C | 63% | 916.4 hPa | 0 mm | - | - | - |
| 1778060053 | 28.89° C | 63% | 916.4 hPa | 0 mm | - | - | - |
| 1778059848 | 30° C | 64% | 916.5 hPa | 0 mm | - | - | - |
| 1778059711 | 30° C | 64% | 916.4 hPa | 0 mm | - | - | - |
* Rain latest hour (hover to see other rain measurements)
** Current wind speed in m/s (hover to see current wind gust speed)